www.pogodaiklimat.ru

Погода и климат >> Архив погоды >> Канада >> Wager Bay


ПОГОДА в Wager Bay

  • Прогноз погоды в Wager Bay
  • Монитор погоды в Wager Bay
  • Климат города

АРХИВ ПОГОДЫ в Wager Bay

Время (UTC), дата Ветер
(напр.,м/с)
 
Видим.   Явления Облачность Т
(С)
Тd
(С)
f
(%)
Тe
(С)
Тes
(С)
Комфортность P
(гПа)
Po
(гПа)
Тmin
(С)
Tmax
(С)
R
(мм)
R24
(мм)
S
(см)
06 6.12 СЗ 5 н/о н/о -30.8 -34.4 71 -43 -43 опасность
обморожения
1006.5 1004.0 -32.0 -26.4 19
09 6.12 СЗ 5 н/о н/о -29.6 -32.9 73 -42 -42 опасность
обморожения
1006.3 1003.8
12 6.12 СЗ 7 н/о н/о -25.2 -28.2 76 -38 -38 опасность
обморожения
1005.6 1003.1 -31.7 -26.4
15 6.12 СЗ 7 н/о н/о -25.6 -29.4 70 -39 -39 опасность
обморожения
1005.1 1002.6
18 6.12 СЗ 4 н/о н/о -27.1 -31.3 67 -38 -38 опасность
обморожения
1004.9 1002.4 -32.0 -24.6
21 6.12 СЗ 7 н/о н/о -27.6 -31.3 71 -42 -42 опасность
обморожения
1004.7 1002.2
00 7.12 СЗ 3 н/о н/о -28.8 -32.5 70 -38 -38 опасность
обморожения
1004.9 1002.4 -31.2 -24.6
03 7.12 штиль 0 н/о н/о -29.5 -32.8 73 -30 -30 1004.5 1002.0
06 7.12 СЗ 3 н/о н/о -28.5 -32.0 72 -37 -37 опасность
обморожения
1005.4 1002.9 -31.5 -24.6 15
09 7.12 СЗ 4 н/о н/о -29.0 -32.3 73 -39 -39 опасность
обморожения
1006.3 1003.8
12 7.12 С 1 н/о н/о -30.7 -34.0 73 -35 -35 опасность
обморожения
1008.3 1005.8 -31.5 -24.6
18 7.12 С 1 н/о н/о -31.3 -35.0 70 -33 -33 опасность
обморожения
1011.2 1008.7 -33.6 -27.9
21 7.12 СВ 1 н/о н/о -32.2 -36.2 67 -37 -37 опасность
обморожения
1011.6 1009.1
00 8.12 В 2 н/о н/о -32.3 -36.3 67 -40 -40 опасность
обморожения
1011.9 1009.4 -33.6 -30.5
03 8.12 В 1 н/о н/о -29.9 -33.5 71 -34 -34 опасность
обморожения
1011.4 1008.9
06 8.12 В 2 н/о н/о -27.8 -31.4 71 -35 -35 опасность
обморожения
1010.1 1007.6 -33.6 -27.8
09 8.12 ЮВ 3 н/о н/о -25.4 -28.2 77 -34 -34 опасность
обморожения
1010.3 1007.8 0.2
12 8.12 СВ 3 н/о {осадки} н/о -25.5 -28.6 75 -33 -33 опасность
обморожения
1011.3 1008.8 -32.4 -27.8 0.2
15 8.12 З 2 н/о {осадки} н/о -26.5 -29.4 76 -32 -32 опасность
обморожения
1013.1 1010.6 0.2
18 8.12 СЗ 3 н/о {осадки} н/о -24.7 -28.0 74 -32 -32 опасность
обморожения
1015.2 1012.7 -33.5 -24.2 0.2
21 8.12 С 1 н/о н/о -25.2 -28.2 76 -29 -29 1017.5 1015.0
00 9.12 СЗ 3 н/о н/о -24.4 -27.5 75 -33 -33 опасность
обморожения
1019.7 1017.2 -27.8 -24.2
03 9.12 СЗ 2 н/о н/о -23.9 -27.0 75 -31 -31 опасность
обморожения
1020.7 1018.2
06 9.12 ЮВ 1 н/о н/о -24.4 -27.0 79 -25 -25 1021.7 1019.2 -27.8 -23.9
09 9.12 В 1 н/о н/о -23.7 -26.3 79 -25 -25 1022.6 1020.1
12 9.12 штиль 0 н/о н/о -23.7 -25.9 82 -24 -24 1022.2 1019.7 -24.8 -23.9
15 9.12 ЮВ 1 н/о н/о -22.9 -25.1 82 -24 -24 1022.3 1019.8
18 9.12 ЮВ 1 н/о н/о -21.7 -23.7 84 -22 -22 1021.8 1019.3 -25.7 -21.4
21 9.12 С 1 н/о н/о -20.1 -22.0 85 -21 -21 1022.2 1019.7
00 10.12 ЮВ 4 н/о н/о -17.4 -19.0 87 -26 -26 1022.0 1019.5 -24.8 -17.2
03 10.12 ЮВ 5 н/о н/о -16.3 -17.9 87 -26 -26 1021.3 1018.8
06 10.12 ЮВ 8 н/о н/о -15.7 -17.4 87 -27 -27 1020.8 1018.4 -24.8 -15.6 6
09 10.12 ЮВ 7 н/о н/о -15.6 -17.4 86 -26 -26 1020.4 1018.0
12 10.12 ЮВ 8 н/о н/о -14.2 -15.6 89 -25 -25 1019.2 1016.8 -17.4 -15.6
15 10.12 ЮВ 10 н/о н/о -14.1 -15.5 89 -26 -26 1017.1 1014.7
18 10.12 Ю 9 н/о н/о -13.0 -14.8 86 -24 -24 1016.0 1013.6 -21.8 -12.7
21 10.12 Ю 10 н/о н/о -13.2 -15.4 83 -25 -25 1014.1 1011.7
00 11.12 Ю 11 н/о н/о -14.4 -16.5 84 -27 -27 1010.6 1008.2 -16.2 -12.7
03 11.12 ЮВ 10 н/о н/о -13.7 -15.9 83 -25 -25 1007.0 1004.6
06 11.12 Ю 6 н/о н/о -12.1 -14.4 83 -21 -21 1005.3 1002.9 -16.2 -11.0 2
09 11.12 Ю 13 н/о н/о -12.3 -13.7 89 -25 -25 1001.9 999.5
12 11.12 Ю 7 н/о н/о -12.1 -13.2 91 -21 -21 1000.2 997.8 -15.0 -11.0
15 11.12 Ю 5 н/о н/о -11.9 -13.2 90 -20 -20 997.0 994.6
18 11.12 ЮЗ 3 н/о н/о -10.5 -12.1 88 -17 -17 996.1 993.8 -15.0 -10.4
21 11.12 З 4 н/о н/о -9.8 -11.3 89 -16 -16 994.7 992.4
00 12.12 СЗ 1 н/о н/о -10.9 -12.5 88 -13 -13 995.7 993.4 -13.1 -9.7
03 12.12 ЮЗ 1 н/о н/о -11.3 -12.7 89 -12 -12 995.6 993.3
06 12.12 СЗ 7 н/о н/о -11.9 -13.9 85 -21 -21 995.7 993.4 -13.1 -9.7 11
09 12.12 С 2 н/о н/о -13.8 -15.8 85 -19 -19 997.3 994.9
12 12.12 В 1 н/о н/о -16.6 -19.0 82 -17 -17 998.6 996.2 -16.8 -9.7
15 12.12 СВ 5 н/о н/о -16.7 -19.2 81 -26 -26 999.0 996.6
18 12.12 В 5 н/о н/о -17.2 -19.2 84 -26 -26 999.4 997.0 -18.2 -11.9
00 13.12 В 3 н/о н/о -14.3 -15.3 92 -21 -21 1001.2 998.8

 

Местоположение метеостанции Wager Bay (Канада): широта 65.88 долгота -89.43 высота над уровнем моря 18 м.

В архиве по умолчанию представлена погода в Wager Bay за последнюю неделю. Архивные данные за месяц целиком и за предыдущие месяцы, начиная с января 2011 года, Вы можете получить, выбрав интересующий диапазон дат из раскрывающегося списка и нажав кнопку "Ввод!".


*Определитесь, кто Вы:
робот инопланетянин человек

Внимание! Время в таблицах - всемирное. Для получения местного времени необходимо прибавить поправку, которая в Wager Bay равна -6 ч.

Смотрите также архив погоды в соседних городах и на ближайших метеорологических станциях:

Погода в Pelly Bay (Канада) (284 км)
Погода в Kugaaruk climate (Канада) (295 км)
Погода в Back River MAPS (Канада) (321 км)
Погода в Coral Harbour Arpt (Канада) (340 км)
Погода в Baker Lake Climate (Канада) (353 км)
Погода в Baker Lake Airport (Канада) (357 км)
Погода в Rankin Inlet (Канада) (364 км)
Погода в Shepherd Bay (Канада) (369 км)
Погода в Gjoa Haven Climate (Канада) (412 км)
Погода в Spence bay (Канада) (444 км)

Пояснения к столбцам:

Ветер - указаны скорость ветра в м/с - средняя за 10 мин, порывы в срок и между сроками (в фигурных скобках) и направление, откуда дует ветер: С - северный, СВ - северо-восточный, В - восточный, ЮВ - юго-восточный, Ю - южный, ЮЗ - юго-западный, З - западный, СЗ - северо-западный.
Видимость - горизонтальная дальность видимости в метрах или километрах. При видимости от 1 до 10 км при отсутствии осадков обычно наблюдается дымка, при ухудшении видимости до 1 км и менее - туман. В сухую погоду видимость может ухудшаться дымом, пылью или мглою.
Явления - указаны атмосферные явления, наблюдавшиеся в срок или в последний час перед сроком; фигурными скобками обозначены явления, наблюдавшиеся между сроками (за 1-3 часа до срока); квадратными скобками обозначены град или гололедные отложения с указанием их диаметра в мм.
Облачность - указаны через наклонную черту общая и нижняя облачность в баллах и высота нижней границы облаков в метрах; квадратными скобками обозначены формы облаков: Ci - перистые, Cs - перисто-слоистые, Cc - перисто-кучевые, Ac - высококучевые, As - высокослоистые, Sc - слоисто-кучевые, Ns - слоисто-дождевые, Cu - кучевые, Cb - кучево-дождевые. Подробнее классификацию облаков см. в Атласе облаков (PDF).
T - Температура воздуха - температура, измеренная на высоте 2 м над землей.
Td - Температура точки росы - температура, при понижении до которой содержащийся в воздухе водяной пар достигнет насыщения.
f - Относительная влажность воздуха - влажноcть воздуха, измеренная на высоте 2 м над землей.
Te - Эффективная температура - температура, которую ощущает одетый по сезону человек в тени. Характеристика душности погоды. При расчете учитывается влияние влажности воздуха и скорости ветра на теплоощущения человека.
Tes - Эффективная температура на солнце - температура, которую ощущает человек, с поправкой на солнечный нагрев. Характеристика знойности погоды. Зависит от высоты солнца над горизонтом, облачности и скорости ветра. Ночью, в пасмурную погоду, а также при ветре 12 м/с и более поправка равна нулю.
P - Атмосферное давление - приведенное к уровню моря атмосферное давление.
Po - Атмосферное давление - измеренное на уровне метеостанции атмосферное давление.
Tmin - Минимальная температура - минимум температуры воздуха на высоте 2 м над землей.
Tmax - Максимальная температура - максимум температуры воздуха на высоте 2 м над землей.
R - Количество осадков - Количество выпавших осадков за период времени, мм. При наведении курсора мыши на число - период времени, за который выпало указанное количество осадков.
R24 - Количество осадков - Количество выпавших осадков за 24 часа, мм.
S - Снежный покров - Высота снежного покрова, см. При наведении курсора мыши на число - состояние снежного покрова и степень покрытия местности в баллах.